一网星座-0643星 (ONEWEB-0643)

导读

ONEWEB-0643是英国OneWeb公司低轨卫星互联网星座的一员,于2023年3月9日发射。OneWeb旨在通过低轨卫星星座提供全球宽带互联网连接,尤其为基础设施薄弱的偏远区域提供低成本接入服务,卫星运行于近地轨道,使用Ku波段通信,配合地面信关站实现全球信号覆盖,助力缩小全球数字鸿沟,ONEWEB-0643的成功入轨也进一步推进了一网星座的部署进度。

Basic Information
目录编号:
55807
目录名称:
ONEWEB-0643
国际标识:
2023-029M
轨道中心:
EARTH
卫星名称:
一网星座-0643星
卫星全名:
一网星座-0643星 (ONEWEB-0643)
卫星状态:
在轨 (已飞行1283 天)
发射日期:
2023-03-09 UTC
国别 :
英国 (GB)
星等 :
--
This satellite is enrolled in the Space Conjunction Data Service (SCDS) and the current flight risk assessment level is: No High Risk
Orbit Information
数据来源 国际轨道数据 AOE轨道数据
星历时间 2026-09-11T20:54:20+0800
15小时前
查看轨道信息
2026-09-10T23:00:00+0800
1天前
查看轨道信息
半长轴 7583.934km 7583.926km
偏心率 0.0001711 0.0001586
轨道倾角 87.889° 87.890°
近地点辐角 71.808° 62.741°
升交点赤经 272.502° 272.686°
平近点角 288.324° 300.640°
近地点 1204.499km 1204.586km
远地点 1207.095km 1206.992km
周期 109.547分钟 109.547分钟
每日圈数 13.145011 13.145034
Detailed Information
平衡模式:
三轴稳定
覆盖范围:
全球
运营商:
一网卫星公司
运营商所在国:
英国
制造商(研发单位):
一网卫星公司
制造商所在国:
英国
使用方式:
暂无
Satellite Introduction
OneWeb卫星网络由648颗重约125公斤的微型卫星组成,运行在1200公里的轨道上。 每颗卫星都能够提供至少每秒8千兆位的吞吐量,以使用其高吞吐量的Ku频段有效载荷为家庭和移动平台提供互联网接入。该卫星仍在工作。
2D Orbit Map
3D Orbit Map
Orbit Altitude Analysis Chart
Orbit Inclination Analysis Chart
Orbit Comprehensive Analysis Chart
View Comprehensive Chart
Miss Distance Evolution Trend with All Objects
Collision Probability Evolution Trend with All Objects